Location: Kellogg
(38.0159°N, 90.0546°W)
Time: 15:53:42
(UTC+00:00)

Courier 1B Rocket - Visible Passes

Search period start: 13 September 2024 00:00
Search period end: 23 September 2024 00:00
Orbit: 920 x 1201 km, 28.2° (Epoch: 12 September)

Date Brightness Start Highest point End Pass type
(mag) Time Alt. Az. Time Alt. Az. Time Alt. Az.
13 Sep 6.1 00:25:23 10° WSW 00:32:00 39° S 00:39:00 10° ESE visible
13 Sep 6.2 02:18:33 10° WSW 02:25:07 33° SSW 02:26:19 32° S visible
14 Sep 6.2 01:17:21 10° WSW 01:23:56 37° S 01:28:46 18° SE visible
14 Sep 7.0 03:11:17 10° WSW 03:15:07 21° SW 03:15:07 21° SW visible
15 Sep 6.5 02:09:44 10° WSW 02:15:48 28° SSW 02:17:37 25° S visible
16 Sep 6.4 01:08:25 10° WSW 01:14:39 32° SSW 01:20:08 14° SE visible
16 Sep 7.2 03:03:02 10° WSW 03:06:29 16° SW 03:06:29 16° SW visible
17 Sep 6.8 02:01:08 10° WSW 02:06:28 22° SSW 02:09:03 18° S visible
18 Sep 6.7 00:59:40 10° WSW 01:05:23 26° SSW 01:11:23 10° SE visible
18 Sep 7.4 02:56:00 10° SW 02:58:01 11° SSW 02:58:01 11° SSW visible
19 Sep 7.2 01:53:02 10° WSW 01:57:07 16° SSW 02:00:41 11° S visible
20 Sep 7.0 00:51:10 10° WSW 00:56:05 20° SSW 01:01:13 10° SSE visible
21 Sep 7.5 01:46:54 10° SW 01:47:45 10° SSW 01:48:37 10° SSW visible
22 Sep 7.4 00:43:15 10° SW 00:46:46 14° SSW 00:50:25 10° S visible
